Location: Poinsettia Observatory
(32.9673°N, 117.0346°W)
Time: 11:11:26
(UTC-08:00)

Daily predictions for brighter satellites

Satellite Brightness Start Highest point End
(mag) Time Altitude Azimuth Time Altitude Azimuth Time Altitude Azimuth
CENTAUR R/B 3.4 17:47:33 10° NNW 17:55:11 47° NE 18:03:09 10° SE
ATLAS 2A CENTAUR R/B 4.4 17:49:26 10° WSW 17:56:29 67° S 18:29:06 10° E
NOSS 2-2 (E) 3.9 17:54:54 10° SW 17:58:51 66° WNW 18:03:15 10° NNE
GOES 2 Rocket 3.8 17:54:15 10° WSW 17:59:08 48° S 18:03:17 10° ESE
Cosmos 1812 4.0 17:57:57 10° NNE 18:00:50 20° ENE 18:03:42 10° SE
Okean 3 3.6 18:05:34 10° N 18:09:52 82° W 18:14:07 10° S
Cosmos 44 Rocket 4.0 18:05:59 10° N 18:10:12 31° NE 18:14:22 10° ESE
DELTA 2 R/B (1) 4.3 18:05:01 10° W 18:10:22 45° N 18:15:45 10° ENE
ISS -0.2 18:14:03 10° W 18:16:01 15° SW 18:17:59 10° SSW
NOSS 2-2 (D) 4.5 18:14:48 10° SW 18:18:38 46° NW 18:22:52 10° NNE
Tiangong 2 3.4 18:19:37 10° NNW 18:21:14 13° N 18:22:51 10° NE
BREEZE-M DEB (TANK) 4.4 18:13:15 10° NW 18:21:15 32° NNE 18:23:47 14° ENE
SJ-6B 3.2 18:18:15 10° SE 18:22:08 43° ENE 18:25:57 10° N
Cosmos 2292 Rocket 4.3 18:20:10 10° SSE 18:24:04 36° E 18:29:08 10° NNE
Cosmos 1697 Rocket 4.0 18:21:27 10° NW 18:26:48 44° WSW 18:32:05 10° S
Cosmos 2360 Rocket 3.9 18:25:39 10° NNE 18:28:10 13° NE 18:28:48 13° ENE
Meteor 1-18 Rocket 4.2 18:23:02 10° N 18:28:30 57° E 18:33:59 10° SSE
Cosmos 676 Rocket 4.5 18:24:22 10° SSE 18:29:05 37° E 18:33:51 10° NE
Cosmos 1980 Rocket 2.4 18:23:48 10° NNW 18:29:29 76° WSW 18:35:09 10° SSE
Cosmos 407 Rocket 3.5 18:25:26 10° S 18:30:31 60° ESE 18:35:43 10° NNE
Cosmos 1975 Rocket 3.2 18:26:48 10° N 18:31:07 78° W 18:35:25 10° S
Cosmos 1992 Rocket 3.9 18:28:38 10° NNW 18:33:52 71° ENE 18:39:04 10° SSE
METEOR-M 4.1 18:30:24 10° SSE 18:35:44 87° ENE 18:41:07 10° NNW
Gbstr 26 Del rocket 4.3 18:33:32 10° S 18:36:08 17° SE 18:36:36 17° ESE
ERBS 2.5 18:33:30 10° NNW 18:36:53 49° NE 18:38:56 21° ESE
FengYun 1-2 T 4.4 18:34:47 10° SE 18:40:01 48° ENE 18:45:16 10° N
CZ-3C R/B 3.2 18:36:55 10° SW 18:40:02 13° SSW 18:41:56 10° SSE
Resurs 01 Rocket 2.1 18:37:46 10° SE 18:41:49 37° ENE 18:45:52 10° N
Cosmos 44 3.4 18:38:56 10° NNW 18:43:04 39° ENE 18:45:18 22° ESE
NOAA 12 4.3 18:37:50 10° S 18:43:08 77° WSW 18:48:28 10° NNW
Cosmos 1536 Rocket 3.8 18:45:36 10° N 18:49:54 47° E 18:54:12 10° SSE
ASTRO E2 2.8 18:47:18 10° W 18:51:19 67° S 18:53:02 32° ESE
Nadezhda 1 Rocket 4.1 18:45:31 10° N 18:51:36 78° W 18:57:38 10° S
FREGAT/IRIS 3.2 18:48:50 10° S 18:51:51 58° W 18:54:54 10° NNW
Cosmos 1190 Rocket 4.3 18:48:03 10° SSW 18:53:11 67° WNW 18:58:22 10° N
Okean 1 3.2 18:51:27 10° N 18:55:30 67° E 18:59:31 10° SSE
Cosmos 2181 Rocket 4.2 18:51:15 10° N 18:57:13 47° E 19:03:15 10° SSE
SL-16 R/B 2.1 18:52:51 10° NNW 18:58:30 63° ENE 19:04:06 10° SSE
Meteor 1-13 Rocket 4.5 18:53:28 10° N 18:58:42 41° ENE 19:03:58 10° SSE
Cosmos 1633 2.5 18:57:14 10° S 19:00:50 58° E 19:02:59 22° NNE
Cosmos 1140 Rocket 3.6 18:59:01 10° S 19:03:55 48° ESE 19:06:34 25° NE
Helios 1B rocket 2.6 19:04:11 45° E 19:04:30 46° E 19:08:28 10° S
OAO 3 Copernicus 4.4 18:59:48 10° W 19:04:52 70° N 19:06:42 39° ENE
DNEPR-1 R/B 3.8 19:01:05 10° NNW 19:05:06 42° ENE 19:05:11 42° ENE
Spot 2 Rocket 3.4 19:00:12 10° SSE 19:05:11 67° ENE 19:10:13 10° N
CZ-2D R/B 4.5 19:07:46 27° NNE 19:07:46 27° NNE 19:09:47 10° N
Cosmos 1340 3.9 19:06:17 10° N 19:08:18 28° NNE 19:08:18 28° NNE
HJ-1C 3.8 19:06:54 10° S 19:10:14 62° W 19:13:36 10° NNW
Resurs 1-3 3.4 19:07:15 10° SSE 19:11:35 70° ENE 19:15:58 10° N
Cosmos 2184 Rocket 4.3 19:08:37 10° SSE 19:14:27 40° E 19:20:16 10° NNE
Cosmos 2074 Rocket 4.2 19:11:15 10° SSE 19:17:04 44° E 19:22:57 10° NNE
CZ-3C R/B 3.1 19:14:17 10° SW 19:18:16 15° SSW 19:19:35 13° S
Cosmos 2322 Rocket 2.2 19:12:56 10° NNW 19:18:35 83° WSW 19:24:10 10° SSE
ALOS 2.8 19:14:17 10° S 19:18:52 60° W 19:23:29 10° NNW
Cosmos 1709 Rocket 4.2 19:12:57 10° SSW 19:19:11 70° W 19:25:23 10° N
Cosmos 1300 Rocket 3.5 19:16:33 10° S 19:20:56 85° W 19:25:21 10° N
H-2A R/B 2.6 19:20:56 72° SSW 19:21:15 81° WSW 19:24:58 10° NNW
PSLV R/B 4.2 19:18:23 10° WNW 19:20:55 44° WSW 19:20:55 44° WSW
Cosmos 1954 Rocket 4.0 19:17:16 10° SSW 19:22:25 79° WNW 19:27:39 10° NNE
Cosmos 614 Rocket 4.1 19:18:03 10° S 19:22:25 51° SE 19:22:25 51° SE
SL-08 ROCKET BODY 4.4 19:18:34 10° S 19:24:31 57° E 19:30:35 10° NNE
Meteor 1-11 Rocket 3.7 19:21:37 10° S 19:27:19 88° W 19:33:11 10° N
CZ-3 Stage 3 4.2 19:24:53 10° WSW 19:29:15 67° SSE 19:35:19 35° E
SL-8 R/B 3.7 19:27:18 10° NW 19:32:07 72° SW 19:32:36 66° S
Meteor 2-4 Rocket 4.4 19:28:23 10° N 19:32:00 37° NNE 19:32:00 37° NNE
CENTAUR R/B 4.4 19:38:30 10° NW 19:45:52 39° WSW 19:53:23 10° S
Okean 1 Rocket 3.6 19:41:40 10° SSW 19:46:03 57° W 19:46:25 55° WNW
DELTA 2 R/B (1) 4.3 19:52:04 10° WNW 19:56:38 44° NNW 19:56:38 44° NNW
CZ-3 Stage 3 4.4 19:32:13 10° SW 20:06:19 40° S 20:08:00 39° SSE
Cosmos 2360 Rocket 3.2 20:07:06 10° NNW 20:10:37 40° NNW 20:10:37 40° NNW
Resurs 01 Rocket 4.5 20:15:47 10° SW 20:18:21 15° W 20:20:56 10° WNW
ATLAS 2A CENTAUR R/B 4.1 20:35:41 10° WSW 20:37:42 27° SW 20:37:42 27° SW
